Terug naar catalogus

KUIPER-00526

ActiefCommunicatieLEO
NORAD 69764·PAYLOAD·🇺🇸 United States

Gelanceerd Jul 2, 2026 vanaf Cape Canaveral Space Force Station

Loading…

Volgende Passages (komende 24 uur)

TLE

VersSource: CelesTrak SupGP

Epoch: Sep 14, 2026, 21:30 UTC

1 69764C 26151B   26257.89618056  .00003581  00000+0  46890-3 0  2575
2 69764  51.8975 259.0484 0000660  63.0586 108.5107 14.79917207    11

Volg KUIPER-00526 in realtime met AllMySat

Download on the App Store